GW1636 Weather Reports


time (UTC)temp
C
wind
direction
speed
KPH
gust
KPH
rain 1hr
cm
rain 24hr
cm
rain mn
cm
humidity
%
barometer
mb
20260510202422 23 248 1.6 4.8 0.00 0.00 0.00 71 1020.4
20260510201919 23 255 0.0 4.8 0.00 0.00 0.00 73 1020.5
20260510201416 23 267 1.6 1.6 0.00 0.00 0.00 72 1020.7
20260510200913 23 298 0.0 1.6 0.00 0.00 0.00 72 1020.4
20260510200412 24 244 1.6 3.2 0.00 0.00 0.00 71 1020.4
20260510195906 24 186 4.8 8.0 0.00 0.00 0.00 70 1020.7
20260510195404 24 238 1.6 3.2 0.00 0.00 0.00 70 1020.5
20260510194858 23 267 1.6 1.6 0.00 0.00 0.00 71 1020.7
20260510194355 23 200 3.2 3.2 0.00 0.00 0.00 70 1020.5
20260510193851 23 257 1.6 1.6 0.00 0.00 0.00 73 1020.5
20260510193345 23 268 0.0 0.0 0.00 0.00 0.00 74 1020.7
20260510192841 22 243 1.6 1.6 0.00 0.00 0.00 73 1020.6
20260510192337 23 203 3.2 4.8 0.00 0.00 0.00 74 1020.9
20260510191833 22 259 0.0 8.0 0.00 0.00 0.00 76 1020.8
20260510191329 23 263 1.6 3.2 0.00 0.00 0.00 74 1020.6
20260510190827 23 207 3.2 3.2 0.00 0.00 0.00 71 1020.7
20260510190325 23 322 1.6 1.6 0.00 0.00 0.00 75 1020.8
20260510185820 23 256 1.6 3.2 0.00 0.00 0.00 73 1020.9
20260510185319 23 235 4.8 8.0 0.00 0.00 0.00 74 1020.8
20260510184816 23 241 3.2 9.7 0.00 0.00 0.00 74 1021.0
20260510184312 23 248 0.0 1.6 0.00 0.00 0.00 75 1021.2
20260510183807 23 191 3.2 8.0 0.00 0.00 0.00 74 1021.1
20260510183302 22 237 1.6 3.2 0.00 0.00 0.00 76 1021.2
20260510182758 23 195 4.8 8.0 0.00 0.00 0.00 75 1021.0
20260510182255 23 226 3.2 4.8 0.00 0.00 0.00 76 1021.1
20260510181751 23 202 1.6 3.2 0.00 0.00 0.00 74 1021.2
20260510181248 22 250 0.0 4.8 0.00 0.00 0.00 77 1021.1
20260510180745 22 234 1.6 8.0 0.00 0.00 0.00 76 1021.3
20260510180242 22 220 3.2 4.8 0.00 0.00 0.00 76 1021.1
20260510175739 22 233 0.0 3.2 0.00 0.00 0.00 78 1021.2
20260510175234 22 200 3.2 4.8 0.00 0.00 0.00 78 1021.2
20260510174731 22 225 3.2 4.8 0.00 0.00 0.00 79 1021.5
20260510174229 22 225 0.0 1.6 0.00 0.00 0.00 83 1021.7
20260510173725 21 188 3.2 8.0 0.00 0.00 0.00 82 1021.6
20260510173220 22 215 1.6 8.0 0.00 0.00 0.00 79 1021.8
20260510172716 22 214 3.2 3.2 0.00 0.00 0.00 80 1021.9
20260510172212 21 213 0.0 4.8 0.00 0.00 0.00 82 1021.8
20260510171709 20 212 0.0 1.6 0.00 0.00 0.00 86 1021.9
20260510171207 21 252 1.6 4.8 0.00 0.00 0.00 86 1022.0
20260510170703 21 219 3.2 4.8 0.00 0.00 0.00 84 1021.9
20260510170159 20 180 3.2 4.8 0.00 0.00 0.00 84 1022.1
20260510165656 20 314 1.6 1.6 0.00 0.00 0.00 85 1022.1
20260510165152 20 252 1.6 1.6 0.00 0.00 0.00 85 1022.1
20260510164649 20 267 0.0 0.0 0.00 0.00 0.00 86 1022.1
20260510164147 20 288 1.6 3.2 0.00 0.00 0.00 87 1022.2
20260510163641 20 305 3.2 3.2 0.00 0.00 0.00 88 1022.2
20260510163137 20 290 0.0 1.6 0.00 0.00 0.00 88 1022.1
20260510162631 20 273 1.6 1.6 0.00 0.00 0.00 88 1022.1
20260510162128 20 273 0.0 3.2 0.00 0.00 0.00 89 1021.9
20260510161624 20 305 1.6 1.6 0.00 0.00 0.00 88 1022.0
20260510161121 20 267 0.0 0.0 0.00 0.00 0.00 89 1022.0
20260510160619 19 241 1.6 1.6 0.00 0.00 0.00 90 1021.9
20260510160118 19 212 3.2 4.8 0.00 0.00 0.00 89 1022.0
20260510155615 19 265 1.6 1.6 0.00 0.00 0.00 90 1022.1
20260510155111 20 262 0.0 3.2 0.00 0.00 0.00 90 1022.1
20260510154606 19 261 1.6 1.6 0.00 0.00 0.00 90 1022.1
20260510154102 19 269 0.0 1.6 0.00 0.00 0.00 92 1022.0
20260510153557 19 269 0.0 3.2 0.00 0.00 0.00 93 1021.9
20260510153054 18 240 0.0 1.6 0.00 0.00 0.00 92 1022.0
20260510152551 18 268 1.6 3.2 0.00 0.00 0.00 92 1022.0
20260510152047 18 216 0.0 1.6 0.00 0.00 0.00 96 1021.9
20260510151544 18 300 0.0 0.0 0.00 0.00 0.00 99 1022.0
20260510151042 17 300 0.0 0.0 0.00 0.00 0.00 99 1021.9
20260510150536 17 298 0.0 0.0 0.00 0.00 0.00 99 1022.1
20260510150033 17 298 0.0 0.0 0.00 0.00 0.00 99 1022.0
20260510145530 17 300 0.0 0.0 0.00 0.00 0.00 99 1021.9
20260510145026 17 298 0.0 0.0 0.00 0.00 0.00 99 1021.9
20260510144523 17 290 0.0 0.0 0.00 0.00 0.00 99 1022.0
20260510144019 17 300 0.0 0.0 0.00 0.00 0.00 99 1022.1
20260510143514 17 276 0.0 0.0 0.00 0.00 0.00 99 1022.1
20260510143011 17 290 0.0 0.0 0.00 0.00 0.00 99 1021.9
20260510142508 17 290 0.0 0.0 0.00 0.00 0.00 99 1022.0
20260510142004 17 290 0.0 0.0 0.00 0.00 0.00 99 1022.1
20260510141501 17 289 0.0 0.0 0.00 0.00 0.00 99 1021.8
20260510140958 17 289 0.0 0.0 0.00 0.00 0.00 99 1021.9
20260510140454 17 288 0.0 0.0 0.00 0.00 0.00 99 1021.9
20260510135954 17 296 0.0 0.0 0.00 0.00 0.00 99 1021.8
20260510135449 17 304 0.0 0.0 0.00 0.00 0.00 99 1021.8
20260510134947 17 320 0.0 1.6 0.00 0.00 0.00 99 1021.9
20260510134443 17 285 0.0 1.6 0.00 0.00 0.00 99 1021.7
20260510133941 17 272 0.0 3.2 0.00 0.00 0.00 99 1021.8
20260510133436 17 286 0.0 0.0 0.00 0.00 0.00 99 1021.8
20260510132932 17 285 0.0 0.0 0.00 0.00 0.00 99 1021.8
20260510132430 17 275 0.0 0.0 0.00 0.00 0.00 99 1021.7
20260510131926 16 272 0.0 0.0 0.00 0.00 0.00 99 1021.8
20260510131424 16 238 1.6 1.6 0.00 0.00 0.00 99 1021.5
20260510130920 16 271 0.0 1.6 0.00 0.00 0.00 99 1021.6
20260510130418 17 257 0.0 0.0 0.00 0.00 0.00 99 1021.3
20260510125915 16 272 0.0 0.0 0.00 0.00 0.00 99 1021.2
20260510125410 16 270 0.0 3.2 0.00 0.00 0.00 99 1021.2
20260510124908 16 258 0.0 3.2 0.00 0.00 0.00 99 1021.5
20260510124404 16 265 0.0 3.2 0.00 0.00 0.00 99 1021.2
20260510123900 16 272 0.0 0.0 0.00 0.00 0.00 99 1021.3
20260510123356 16 271 0.0 0.0 0.00 0.00 0.00 99 1021.1
20260510122853 16 270 0.0 0.0 0.00 0.00 0.00 99 1021.1
20260510122348 16 275 0.0 0.0 0.00 0.00 0.00 99 1021.3
20260510121844 16 275 0.0 0.0 0.00 0.00 0.00 99 1021.1
20260510121342 16 272 0.0 0.0 0.00 0.00 0.00 99 1020.9
20260510120839 16 270 0.0 0.0 0.00 0.00 0.00 99 1020.6
20260510120337 16 271 0.0 0.0 0.00 0.00 0.00 99 1020.6
20260510115832 16 261 0.0 0.0 0.00 0.00 0.00 99 1020.5
20260510115329 16 274 0.0 0.0 0.00 0.00 0.00 99 1020.5
20260510114825 16 278 0.0 0.0 0.00 0.00 0.00 99 1020.4
20260510114322 16 281 0.0 0.0 0.00 0.00 0.00 99 1020.4
20260510113817 16 286 0.0 0.0 0.00 0.00 0.00 99 1020.2
20260510113314 16 277 0.0 0.0 0.00 0.00 0.00 99 1019.8
20260510112811 16 304 0.0 0.0 0.00 0.00 0.00 99 1019.7
20260510112308 16 299 0.0 0.0 0.00 0.00 0.00 99 1019.7
20260510111803 16 300 0.0 0.0 0.00 0.00 0.00 99 1019.5
20260510111301 16 300 0.0 0.0 0.00 0.00 0.00 99 1019.6
20260510110800 16 290 0.0 0.0 0.00 0.00 0.00 99 1019.6
20260510110258 16 293 0.0 0.0 0.00 0.00 0.00 99 1019.4
20260510105758 16 293 0.0 0.0 0.00 0.00 0.00 99 1019.4
20260510105253 16 293 0.0 0.0 0.00 0.00 0.00 99 1019.3
20260510104750 16 293 0.0 0.0 0.00 0.00 0.00 99 1019.4
20260510104247 16 291 0.0 1.6 0.00 0.00 0.00 99 1019.3
20260510103743 16 289 0.0 1.6 0.00 0.00 0.00 99 1019.2
20260510103241 16 288 0.0 0.0 0.00 0.00 0.00 99 1019.2
20260510102740 16 298 0.0 1.6 0.00 0.00 0.00 99 1019.0
20260510102236 16 317 0.0 1.6 0.00 0.00 0.00 99 1018.9
20260510101734 16 304 0.0 0.0 0.00 0.00 0.00 99 1018.9
20260510101232 16 303 0.0 0.0 0.00 0.00 0.00 99 1018.8
20260510100728 16 310 0.0 3.2 0.00 0.00 0.00 99 1018.7
20260510100226 16 303 1.6 1.6 0.00 0.00 0.00 99 1018.7
20260510095721 16 303 0.0 1.6 0.00 0.00 0.00 99 1018.6
20260510095216 16 303 0.0 1.6 0.00 0.00 0.00 99 1018.6
20260510094715 16 303 1.6 3.2 0.00 0.00 0.00 99 1018.4
20260510094211 16 300 0.0 0.0 0.00 0.00 0.00 99 1018.5
20260510093707 16 300 1.6 1.6 0.00 0.00 0.00 99 1018.4
20260510093204 16 278 1.6 1.6 0.00 0.00 0.00 99 1018.4
20260510092701 16 298 0.0 1.6 0.00 0.00 0.00 99 1018.3
20260510092156 16 303 0.0 0.0 0.00 0.00 0.00 99 1018.2
20260510091652 16 303 0.0 0.0 0.00 0.00 0.00 99 1018.3
20260510091149 16 298 0.0 0.0 0.00 0.00 0.00 99 1018.3
20260510090646 16 300 0.0 0.0 0.00 0.00 0.00 99 1018.2
20260510090142 16 300 0.0 0.0 0.00 0.00 0.00 99 1018.1
20260510085638 16 300 0.0 0.0 0.00 0.00 0.00 99 1018.1
20260510085132 16 302 0.0 0.0 0.00 0.00 0.00 99 1018.0
20260510084629 16 302 0.0 0.0 0.00 0.00 0.00 99 1018.1
20260510084126 16 302 0.0 0.0 0.00 0.00 0.00 99 1017.7
20260510083622 16 302 0.0 0.0 0.00 0.00 0.00 99 1017.6
20260510083119 16 298 0.0 0.0 0.00 0.00 0.00 99 1017.7
20260510082610 16 298 0.0 0.0 0.00 0.00 0.00 99 1017.6
20260510082106 16 298 0.0 0.0 0.00 0.00 0.00 99 1017.5
20260510081601 16 298 0.0 0.0 0.00 0.00 0.00 99 1017.7
20260510081056 16 299 0.0 0.0 0.00 0.00 0.00 99 1017.5
20260510080556 16 301 0.0 0.0 0.00 0.00 0.00 99 1017.7
20260510080053 16 301 0.0 0.0 0.00 0.00 0.00 99 1017.5
20260510075550 16 301 0.0 1.6 0.00 0.00 0.00 99 1017.6
20260510075047 16 289 0.0 0.0 0.00 0.00 0.00 99 1017.7
20260510074545 17 289 0.0 0.0 0.00 0.00 0.00 99 1017.5
20260510074040 17 289 0.0 0.0 0.00 0.00 0.00 99 1017.4
20260510073536 17 289 0.0 0.0 0.00 0.00 0.00 99 1017.5
20260510073033 17 289 0.0 0.0 0.00 0.00 0.00 99 1017.7
20260510072530 17 289 0.0 1.6 0.00 0.00 0.00 99 1017.6
20260510072025 17 289 0.0 0.0 0.00 0.00 0.00 99 1017.6
20260510071521 17 289 0.0 0.0 0.00 0.00 0.00 99 1017.6
20260510071020 17 289 0.0 0.0 0.00 0.00 0.00 99 1017.8
20260510070517 16 289 0.0 0.0 0.00 0.00 0.00 99 1017.5
20260510070013 16 289 0.0 0.0 0.00 0.00 0.00 99 1017.6
20260510065510 16 289 0.0 0.0 0.00 0.00 0.00 99 1017.7
20260510065006 16 289 0.0 0.0 0.00 0.00 0.00 99 1018.2
20260510064503 16 289 0.0 0.0 0.00 0.00 0.00 99 1018.0
20260510063959 17 289 0.0 0.0 0.00 0.00 0.00 99 1017.8
20260510063456 17 289 0.0 0.0 0.00 0.00 0.00 99 1018.1
20260510062954 17 289 0.0 0.0 0.00 0.00 0.00 99 1018.0
20260510062449 17 289 0.0 1.6 0.00 0.00 0.00 99 1018.1
20260510061944 17 289 0.0 0.0 0.00 0.00 0.00 99 1018.0
20260510061441 17 288 0.0 0.0 0.00 0.00 0.00 99 1018.3
20260510060937 17 289 0.0 0.0 0.00 0.00 0.00 99 1018.2
20260510060435 17 289 0.0 1.6 0.00 0.00 0.00 99 1018.1
20260510055930 17 289 0.0 0.0 0.00 0.00 0.00 99 1018.2
20260510055426 17 289 0.0 0.0 0.00 0.00 0.00 99 1018.1
20260510054919 17 287 1.6 1.6 0.00 0.00 0.00 99 1017.8
20260510054414 17 282 0.0 0.0 0.00 0.00 0.00 99 1018.1
20260510053909 17 282 0.0 0.0 0.00 0.00 0.00 99 1018.0
20260510053405 17 285 0.0 1.6 0.00 0.00 0.00 99 1018.4
20260510052902 17 281 0.0 1.6 0.00 0.00 0.00 99 1018.3
20260510052357 17 281 0.0 0.0 0.00 0.00 0.00 99 1018.2
20260510051854 17 281 0.0 0.0 0.00 0.00 0.00 99 1018.1
20260510051350 17 280 0.0 0.0 0.00 0.00 0.00 99 1018.3
20260510050847 17 282 0.0 0.0 0.00 0.00 0.00 99 1018.4
20260510050343 17 274 0.0 1.6 0.00 0.00 0.00 99 1018.5
20260510045835 17 275 0.0 0.0 0.00 0.00 0.00 99 1018.3
20260510045332 17 271 0.0 0.0 0.00 0.00 0.00 99 1018.3
20260510044829 17 270 0.0 0.0 0.00 0.00 0.00 99 1018.3
20260510044326 17 247 0.0 0.0 0.00 0.00 0.00 99 1018.4
20260510043822 17 246 0.0 0.0 0.00 0.00 0.00 99 1018.3
20260510043318 17 231 0.0 0.0 0.00 0.00 0.00 99 1018.3
20260510042816 17 231 0.0 3.2 0.00 0.00 0.00 99 1018.4
20260510042312 17 209 1.6 3.2 0.00 0.00 0.00 99 1018.4
20260510041808 17 240 0.0 3.2 0.00 0.00 0.00 99 1018.4
20260510041305 17 225 0.0 3.2 0.00 0.00 0.00 99 1018.3
20260510040802 17 241 0.0 8.0 0.00 0.00 0.00 99 1018.4
20260510040254 17 251 1.6 1.6 0.00 0.00 0.00 99 1018.2
20260510035749 17 243 3.2 3.2 0.00 0.00 0.00 99 1018.4
20260510035245 17 248 1.6 3.2 0.00 0.00 0.00 99 1018.4
20260510034741 17 244 1.6 3.2 0.00 0.00 0.00 99 1018.4
20260510034239 17 246 1.6 3.2 0.00 0.00 0.00 99 1018.4
20260510033734 17 215 1.6 3.2 0.00 0.00 0.00 99 1018.2
20260510033227 17 253 0.0 3.2 0.00 0.00 0.00 99 1018.5
20260510032723 17 254 0.0 3.2 0.00 0.00 0.00 98 1018.5
20260510032219 18 255 0.0 1.6 0.00 0.00 0.00 98 1018.6
20260510031714 18 254 0.0 1.6 0.00 0.00 0.00 98 1018.6
20260510031211 18 245 3.2 3.2 0.00 0.00 0.00 98 1018.5
20260510030709 18 236 1.6 3.2 0.00 0.00 0.00 97 1018.6
20260510030207 18 254 0.0 0.0 0.00 0.00 0.00 97 1018.6
20260510025704 18 253 1.6 4.8 0.00 0.00 0.00 97 1018.4
20260510025201 18 243 1.6 4.8 0.00 0.00 0.00 97 1018.4
20260510024659 18 216 1.6 4.8 0.00 0.00 0.00 97 1018.3
20260510024155 18 245 1.6 3.2 0.00 0.00 0.00 97 1018.3
20260510023650 18 249 1.6 1.6 0.00 0.00 0.00 97 1018.3
20260510023148 18 251 0.0 1.6 0.00 0.00 0.00 97 1018.4
20260510022643 18 238 3.2 8.0 0.00 0.00 0.00 97 1018.1
20260510022139 18 250 1.6 3.2 0.00 0.00 0.00 97 1018.0
20260510021635 18 243 0.0 1.6 0.00 0.00 0.00 97 1018.3
20260510021132 18 249 0.0 1.6 0.00 0.00 0.00 96 1018.0
20260510020626 18 244 1.6 4.8 0.00 0.00 0.00 96 1017.8
20260510020122 18 222 3.2 8.0 0.00 0.00 0.00 96 1017.8
20260510015618 18 248 1.6 1.6 0.00 0.00 0.00 95 1017.8
20260510015114 18 250 0.0 3.2 0.00 0.00 0.00 95 1017.7
20260510014609 18 196 4.8 4.8 0.00 0.00 0.00 95 1017.5
20260510014107 18 233 1.6 4.8 0.00 0.00 0.00 95 1017.4
20260510013601 18 207 0.0 3.2 0.00 0.00 0.00 95 1017.4
20260510013058 18 239 1.6 4.8 0.00 0.00 0.00 94 1017.2
20260510012557 18 218 3.2 3.2 0.00 0.00 0.00 94 1017.0
20260510012054 18 248 0.0 3.2 0.00 0.00 0.00 94 1017.0
20260510011553 18 231 1.6 3.2 0.00 0.00 0.00 93 1017.0
20260510011049 18 251 1.6 3.2 0.00 0.00 0.00 93 1016.8
20260510010546 18 248 0.0 4.8 0.00 0.00 0.00 93 1016.9
20260510010043 18 187 1.6 3.2 0.00 0.00 0.00 92 1016.6
20260510005539 19 256 1.6 3.2 0.00 0.00 0.00 92 1016.7
20260510005037 19 229 0.0 4.8 0.00 0.00 0.00 92 1016.7
20260510004534 19 255 0.0 3.2 0.00 0.00 0.00 92 1016.5
20260510004033 19 237 1.6 4.8 0.00 0.00 0.00 92 1016.6
20260510003529 19 230 1.6 3.2 0.00 0.00 0.00 91 1016.6
20260510003024 19 209 4.8 8.0 0.00 0.00 0.00 91 1016.7
20260510002520 19 253 0.0 1.6 0.00 0.00 0.00 90 1016.7
20260510002017 19 250 0.0 1.6 0.00 0.00 0.00 89 1016.6
20260510001514 19 249 0.0 3.2 0.00 0.00 0.00 88 1016.6
20260510001013 20 250 0.0 1.6 0.00 0.00 0.00 88 1016.6
20260510000513 20 250 0.0 0.0 0.00 0.00 0.00 87 1016.4
20260510000010 20 250 0.0 0.0 0.00 0.00 0.00 87 1016.3
20260509235507 20 250 0.0 0.0 0.00 0.00 0.00 87 1016.3
20260509235003 20 250 0.0 0.0 0.00 0.00 0.00 87 1016.0
20260509234500 20 250 0.0 0.0 0.00 0.00 0.00 86 1016.1
20260509233958 20 249 1.6 1.6 0.00 0.00 0.00 85 1015.9
20260509233455 20 249 0.0 1.6 0.00 0.00 0.00 85 1016.0
20260509232950 20 251 0.0 0.0 0.00 0.00 0.00 84 1015.9
20260509232449 20 251 0.0 0.0 0.00 0.00 0.00 84 1015.6
20260509231944 20 251 0.0 3.2 0.00 0.00 0.00 84 1015.9
20260509231441 20 250 0.0 1.6 0.00 0.00 0.00 83 1015.7
20260509230939 20 251 0.0 0.0 0.00 0.00 0.00 83 1015.9
20260509230436 21 250 0.0 1.6 0.00 0.00 0.00 83 1015.7
20260509225932 21 250 1.6 3.2 0.00 0.00 0.00 82 1015.6
20260509225428 21 251 0.0 1.6 0.00 0.00 0.00 82 1015.7
20260509224925 21 240 1.6 1.6 0.00 0.00 0.00 81 1015.6
20260509224420 21 251 1.6 1.6 0.00 0.00 0.00 81 1015.6
20260509223917 21 253 0.0 3.2 0.00 0.00 0.00 81 1015.6
20260509223414 21 258 0.0 0.0 0.00 0.00 0.00 80 1015.6
20260509222911 21 249 0.0 0.0 0.00 0.00 0.00 80 1015.5
20260509222406 21 248 0.0 1.6 0.00 0.00 0.00 80 1015.4
20260509221902 21 195 6.4 8.0 0.00 0.00 0.00 79 1015.4
20260509221400 21 251 0.0 3.2 0.00 0.00 0.00 80 1015.6
20260509220855 21 251 0.0 3.2 0.00 0.00 0.00 80 1015.4
20260509220351 21 252 0.0 4.8 0.00 0.00 0.00 80 1015.3
20260509215847 21 220 3.2 3.2 0.00 0.00 0.00 78 1015.6
20260509215344 21 204 3.2 4.8 0.00 0.00 0.00 78 1015.4
20260509214841 21 259 1.6 1.6 0.00 0.00 0.00 78 1015.4
20260509214338 21 256 0.0 1.6 0.00 0.00 0.00 78 1015.2
20260509213835 22 248 0.0 3.2 0.00 0.00 0.00 78 1015.5
20260509213330 22 209 1.6 1.6 0.00 0.00 0.00 75 1015.3
20260509212828 22 255 1.6 3.2 0.00 0.00 0.00 71 1015.2
20260509212326 22 248 0.0 3.2 0.00 0.00 0.00 72 1015.2
20260509211821 22 249 1.6 4.8 0.00 0.00 0.00 73 1015.2
20260509211317 22 288 0.0 0.0 0.00 0.00 0.00 69 1015.1
20260509210814 22 289 1.6 3.2 0.00 0.00 0.00 72 1015.1
20260509210312 22 287 0.0 3.2 0.00 0.00 0.00 74 1015.2
20260509205811 22 309 3.2 3.2 0.00 0.00 0.00 70 1015.1
20260509205307 22 296 0.0 1.6 0.00 0.00 0.00 72 1015.2
20260509204802 22 291 0.0 0.0 0.00 0.00 0.00 73 1014.9
20260509204259 22 287 1.6 3.2 0.00 0.00 0.00 71 1014.9
20260509203755 22 279 0.0 0.0 0.00 0.00 0.00 71 1015.3
20260509203252 22 277 1.6 1.6 0.00 0.00 0.00 72 1015.1
20260509202748 22 291 0.0 3.2 0.00 0.00 0.00 74 1015.4